Weather History for Robstown, TX

Change the Weather History Date:

Sunday, March 24, 2013

  Actual Average (KCRP) Record (KCRP)
Temperature  
Mean Temperature 66 °F 68 °F  
Max Temperature 68 °F 78 °F 95 °F (1928)
Min Temperature 63 °F 58 °F 39 °F (1952)
Degree Days  
Heating Degree Days 0 2  
Month to date heating degree days 71  
Since 1 July heating degree days 871  
Cooling Degree Days 0 4  
Month to date cooling degree days 80  
Year to date cooling degree days 156  
Growing Degree Days 16 (Base 50)    
Moisture  
Dew Point 63 °F    
Average Humidity 92    
Maximum Humidity 96    
Minimum Humidity 71    
Precipitation  
Precipitation 0.00 in 0.07 in 1.03 in (1941)
Month to date precipitation 1.50  
Year to date precipitation 4.97  
Snow  
Snow 0.00 in - - ()
Month to date snowfall  
Since 1 July snowfall  
Snow Depth -    
Sea Level Pressure  
Sea Level Pressure 29.76 in    
Wind  
Wind Speed 8 mph (WSW)    
Max Wind Speed 23 mph    
Max Gust Speed 34 mph    
Visibility 2 miles    
Events Fog , Rain    
T = Trace of Precipitation, MM = Missing Value Source: NWS Daily Summary

Daily Weather History Graph

Daily Weather History Graph

Search for Another Location

Airport:

Trip Planner

Search our weather history database for the weather conditions in past years. The results will help you decide how hot, cold, wet, or windy it might be!

Date:

Astronomy

Mar. 24, 2013 Rise Set
Actual Time 7:29 AM CDT 7:44 PM CDT
Civil Twilight 7:06 AM CDT 8:07 PM CDT
Nautical Twilight 6:39 AM CDT 8:35 PM CDT
Astronomical Twilight 6:11 AM CDT 9:02 PM CDT
Moon 5:24 PM CDT (3/24) 5:28 AM CDT (3/24)
Length of Visible Light 13h 01m
Length of Day
12h 14m
Waxing Gibbous, 92% of the Moon is Illuminated
Mar 24
Waxing Gibbous
Mar 27
Full
Apr 2
Last Quarter
Apr 10
New
Apr 18
First Quarter

Hourly Weather History & Observations

Time (CDT) Temp. Dew Point Humidity Pressure Visibility Wind Dir Wind Speed Gust Speed Precip Events Conditions
12:15 AM 67.1 °F 63.0 °F 87% 29.67 in 7.0 mi South 8.1 mph - N/A   Clear
12:35 AM 66.2 °F 64.2 °F 93% 29.67 in 0.5 mi South 6.9 mph - N/A Rain Rain
12:55 AM 66.7 °F 65.1 °F 95% 29.68 in 0.5 mi South 4.6 mph - N/A   Light Drizzle
1:15 AM 67.1 °F 65.5 °F 95% 29.68 in 0.5 mi SSE 4.6 mph - N/A Fog Fog
1:35 AM 67.1 °F 65.5 °F 95% 29.68 in 0.5 mi South 6.9 mph - N/A Fog Fog
1:55 AM 66.7 °F 65.3 °F 95% 29.70 in 0.5 mi SSW 5.8 mph - N/A Fog Fog
2:15 AM 66.6 °F 65.1 °F 95% 29.71 in 0.2 mi WNW 5.8 mph - N/A Fog Fog
2:35 AM 66.2 °F 64.8 °F 95% 29.72 in 0.2 mi West 3.5 mph - N/A Fog Fog
2:55 AM 65.7 °F 64.4 °F 96% 29.71 in 0.2 mi SW 4.6 mph - N/A Fog Fog
3:15 AM 65.8 °F 64.6 °F 96% 29.71 in 0.2 mi SSW 6.9 mph - N/A Fog Fog
3:35 AM 66.4 °F 65.3 °F 96% 29.71 in 0.2 mi SW 9.2 mph - N/A Fog Fog
3:55 AM 66.2 °F 64.8 °F 95% 29.71 in 0.2 mi SW 6.9 mph - N/A Fog Fog
4:15 AM 65.8 °F 64.6 °F 96% 29.72 in 0.2 mi WSW 5.8 mph - N/A Fog Fog
4:35 AM 64.9 °F 63.7 °F 96% 29.73 in 0.2 mi West 3.5 mph - N/A Fog Fog
4:55 AM 63.9 °F 62.8 °F 96% 29.74 in 0.2 mi WNW 4.6 mph - N/A Fog Fog
5:15 AM 63.1 °F 62.1 °F 96% 29.75 in 1.0 mi WNW 4.6 mph - N/A   Overcast
5:35 AM 63.0 °F 61.9 °F 96% 29.79 in 4.0 mi North 11.5 mph - N/A   Scattered Clouds
5:55 AM 64.9 °F 63.9 °F 96% 29.82 in 5.0 mi North 12.7 mph - N/A   Mostly Cloudy
6:15 AM 66.6 °F 64.6 °F 93% 29.83 in 5.0 mi North 12.7 mph 19.6 mph N/A   Overcast
6:35 AM 68.0 °F 64.6 °F 89% 29.85 in - NNE 16.1 mph - N/A   Unknown
7:15 AM 64.4 °F 56.3 °F 75% 29.92 in 7.0 mi North 21.9 mph 34.5 mph N/A   Overcast
7:35 AM 63.7 °F 54.7 °F 72% 29.94 in 10.0 mi North 23.0 mph 33.4 mph N/A   Overcast
7:55 AM 63.1 °F 53.6 °F 71% 29.95 in 10.0 mi North 20.7 mph 26.5 mph N/A   Overcast